Regional Weather Roundup
Issued by NWS Wakefield, VA

Home | Current Version | Previous Version | Graphics & Text | Print | Product List | Glossary On
Versions: 1 2 3 4 5 6 7 8 9 10 11 12 13 14 15 16 17 18 19 20 21 22 23 24 25 26 27 28 29 30 31 32 33 34 35 36 37 38 39 40 41 42 43 44 45 46 47 48 49 50
000
ASUS41 KAKQ 221215
RWRAKQ

REGIONAL WEATHER ROUNDUP
NATIONAL WEATHER SERVICE WAKEFIELD VA
800 AM EDT FRI SEP 22 2017

Note: "fair" indicates few or no clouds below 12,000 feet with no
significant weather and/or obstructions to visibility. * = Denotes
station may not report precipitation (e.g., rain,snow,etc.),
thunder or fog.

VAZ042-051-052>054-056-221300-
NORTHERN VIRGINIA

CITY           SKY/WX    TMP DP  RH WIND       PRES   REMARKS
WASH NATIONAL  CLOUDY    72  66  81 N7        30.07R
DULLES         CLOUDY    68  64  87 N5        30.08R
FORT BELVOIR   CLOUDY    69  64  84 NW3       30.07R
QUANTICO       PTSUNNY   72  64  76 CALM      30.08R
FREDERICKSBRG* CLOUDY    68  65  89 NW3       30.06S
STAFFORD*      PTSUNNY   64  64 100 NW3       30.11S
WARRENTON      PTSUNNY   63  60  89 CALM      30.08S
CULPEPER*      CLOUDY    64  63  97 CALM      30.09S
MANASSAS*      CLOUDY    64  62  93 CALM      30.08S
LEESBURG*      CLOUDY    68  64  88 CALM      30.10R
WINCHESTER     MOSUNNY   61  59  94 CALM      30.11R
FRONT ROYAL*   CLOUDY    61  61 100 CALM      30.11R
LURAY*         CLOUDY    61  61 100 CALM      30.13S
$$

VAZ048-049-060>072-079>083-221300-
CENTRAL AND SOUTH CENTRAL VIRGINIA

CITY           SKY/WX    TMP DP  RH WIND       PRES   REMARKS
RICHMOND       CLOUDY    70  65  84 NW6       30.06R
CHESTERFIELD*  NOT AVBL
PETERSBURG*    CLOUDY    64  64 100 CALM      30.08R
HANOVER        CLOUDY    67  64  90 VRB3      30.08R
TAPPAHANNOCK*  CLOUDY    69  68  98 CALM      30.07R
QUINTON*       FAIR      66  66 100 CALM      30.06R
CHARLOTTSVILLE CLOUDY    66  63  90 W3        30.09R
GORDONSVILLE*  CLOUDY    63  63 100 MISG      30.08R
ORANGE*        CLOUDY    63  61  94 CALM      30.09R
LOUISA*        CLOUDY    61  61 100 CALM      30.08R FOG
BUMPASS*       FAIR      64  64 100 W7        30.08R
FARMVILLE*     CLOUDY    63  63 100 CALM      30.08S FOG
CREWE*         FAIR      62  62 100 CALM      30.08S
FORT PICKETT*  FAIR      66  66 100 CALM      30.09R
CHASE CITY*    FAIR      65  65 100 CALM      30.10R
CLARKSVILLE*   FAIR      63  63 100 CALM      30.09R
SOUTH HILL*    SUNNY     62  62 100 CALM      30.14R
LAWRENCEVILLE* FAIR      65  64  97 CALM      30.08R
EMPORIA*       SUNNY     63  63 100 CALM      30.09S
$$

VAZ088>098-221300-
SOUTHEAST VIRGINIA

CITY           SKY/WX    TMP DP  RH WIND       PRES   REMARKS
NORFOLK        SUNNY     71  68  90 W5        30.05R
VIRGINIA BEACH MOSUNNY   69  66  90 W6        30.04R
NORFOLK NAVAL  MOSUNNY   73  67  81 W7        30.06R
WEST POINT*    CLOUDY    70  66  88 W3        30.07R
SALUDA*        FAIR      69  68  96 W3        30.04R
NEWPORT NEWS   MOSUNNY   71  67  87 W7        30.05R
LANGLEY AFB    MOSUNNY   70  69  96 W8        30.05R
FORT EUSTIS    PTSUNNY   72  68  89 W3        30.03R
WILLIAMSBURG*  MOSUNNY   70  70 100 CALM      30.07R
HR EXEC AP*    FAIR      66  66 100 W3        30.06S
FRANKLIN*      MOSUNNY   64  63  98 CALM      30.07S FOG
US460-WAKEFLD  MOSUNNY   68  67  96 CALM      30.06R
$$

VAZ020-022-025-037-045-221300-
WEST CENTRAL AND SOUTHWEST VIRGINIA

CITY           SKY/WX    TMP DP  RH WIND       PRES   REMARKS
STAUNTON*      CLOUDY    55  55 100 CALM      30.16R FOG
WAYNESBORO*    CLOUDY    59  59 100 CALM      30.15R
HOT SPRINGS VA PTCLDY    64  57  79 W6        30.26R
LYNCHBURG      MOSUNNY   63  62  97 CALM      30.11R
DANVILLE       SUNNY     62  62 100 CALM      30.11R FOG
SOUTH BOSTON*  FAIR      62  60  96 CALM      30.10R
MARTINSVILLE   PTCLDY    62  61  97 CALM      30.15R
ROANOKE        PTCLDY    67  64  90 CALM      30.16R
BLACKSBURG     FOG       65  65 100 CALM      30.21R VSB<1/4
DUBLIN*        CLOUDY    65  65 100 CALM      30.19S FOG
MARION*        CLOUDY    63  60  90 CALM      30.23R FOG
HILLSVILLE*    PTCLDY    61  57  87 CALM      30.19S FOG
RICHLANDS*     FAIR      62  61  97 CALM      30.21R
WISE*          CLEAR     63  63 100 CALM      30.21S
ABINGDON*      PTCLDY    64  64 100 E5        30.18R
$$

MDZ021>025-VAZ099-100-221300-
SOUTHERN MARYLAND AND THE DELMARVA PENINSULA

CITY           SKY/WX    TMP DP  RH WIND       PRES   REMARKS
PATUXENT RIVER PTSUNNY   71  69  93 NW9       30.04R
BAY BRIDGE APT CLOUDY    72  63  73 NE3       30.05R
LEONARDTOWN    CLOUDY    68  64  88 CALM      30.06S
DOVER          MOSUNNY   68  63  83 N6        30.03R
GEORGETOWN     CLOUDY    70  65  84 N6        30.04R
EASTON         PTSUNNY   70  64  83 N5        30.08R
CAMBRIDGE      SUNNY     70  66  88 CALM      30.04R
SALISBURY      PTSUNNY   68  68 100 N3        30.02S
OCEAN CITY     CLOUDY    68  68 100 NW5       30.03R
WALLOPS ISLAND CLOUDY    72  71  97 NW8       30.02R
ACCOMACK*      CLOUDY    72  70  93 W6        30.03R
$$

NCZ012>017-030>032-221300-
NORTH CENTRAL AND EASTERN NORTH CAROLINA

CITY           SKY/WX    TMP DP  RH WIND       PRES   REMARKS
ROANOKE RAPIDS FOG       61  61 100 CALM      30.08R VSB 1/4
RALEIGH        MOSUNNY   64  64 100 CALM      30.10R
ELIZABETH CITY SUNNY     68  68 100 W5        30.06R
AHOSKIE*       SUNNY     64  64 100 CALM      30.07S
EDENTON*       SUNNY     67  65  93 CALM      30.06S
CURRITUCK*     SUNNY     67  65  96 W3        30.06R
KILL DEVIL HLS NOT AVBL
MANTEO         SUNNY     68  66  94 CALM      30.06R
CAPE HATTERAS  SUNNY     72  71  97 N3        30.05R
TARBORO*       NOT AVBL
GOLDSBORO      SUNNY     68  68 100 CALM      30.06R
WASHINGTON     SUNNY     68  67  96 CALM      30.07S
GREENVILLE     SUNNY     66  66 100 CALM      30.08S FOG
NEW BERN       MOSUNNY   68  68 100 CALM      30.08R
WILMINGTON     SUNNY     69  67  93 CALM      30.06R
$$

VAZ048-221300-
ELSEWHERE

CITY           SKY/WX    TMP DP  RH WIND       PRES   REMARKS
HARRISBURG PA  PTSUNNY   68  65  90 NW7       30.07R
BALTIMORE      CLOUDY    68  66  93 CALM      30.06R
ANNAPOLIS      CLOUDY    74  69  85 N5        30.05S
ANDREWS AFB    CLOUDY    68  64  85 N6        30.06R
PHILADELPHIA   PTSUNNY   69  59  70 N8        30.05R
HENDERSON NC   SUNNY     60  59  98 CALM      30.09R FOG
GREENSBORO     MOCLDY    69  68  96 CALM      30.11R
ROCKY MOUNT    FOG       67  67 100 CALM      30.08R VSB<1/4
$$

VAZ100-221300-
MARINE

STATION/POSITION TIME  TEMP    WIND        PRES    WAVE   SWELL
                       AIR SEA DIR/SP/G            HT/PER HT/PER
                 (UTC) (F)     (DEG/KT/KT) (MB)    (FT/S) (FT/S)
BRANDYWINE LGT   1142   73      20/ 17/ 19 1017.2R
CAPE MAY NJ      1142   71 74   10/  4/  8 1016.2R
LEWES DE         1142   72 74   20/ 12/ 16 1016.7R
15NM E FENWICK I 1050   72 71  320/  6/  8 1015.9    8/10   8/10
OCEAN-CITY-INLET 1142   71 74  350/  5/  5 1016.8R
WACHAPREAGUE VA  1142   71 75  270/  3/  8 1016.6R
THOMAS POINT MD  1200   74 76   40/ 13/ 14   N/A
GOOSES REEF MD   1200   75 75   40/  8/ 10 1018.0    2
COVE POINT MD    1142   74      20/  9/ 10 1018.0R
SOLOMONS ISLAND  1142   71 76  330/  5/  8 1016.9R
BISHOPS HEAD MD  1142   72 76  360/  7/  9 1017.2R
PINEY POINT MD   1142          360/ 10/ 11   N/A
POTOMAC MD       1200   73 76  320/ 10/ 12 1016.4    1/ 2
CAMBRIDGE MD     1142   71 76              1018.0R
LEWISETTA VA     1142   71 77  290/  6/  7 1017.0R
RAPPAHANNOCK LGT 1142          270/ 16/ 17 1017.0S
STINGRAY PT      1200   73 76  310/ 12/ 14 1017.1    1/ 2
YORK RVR RNG VA  1142   72     280/ 11/ 12 1017.8R
YORKTOWN VA      1142   71 76  280/  7/  9 1017.3R
JAMESTOWN VA     1200      78  300/  8/ 10   N/A     0
DOMINION TERM VA 1142   71     310/  9/ 11 1017.7R
KIPTOPEKE VA     1142      76  290/ 12/ 14   N/A
CHES BAY BRIDGE  1142   72 75  260/ 11/ 13 1017.2R
CAPE HENRY VA    1142   71     260/  8/ 10   N/A
WILLOUBY STN VA  1142   72     280/ 11/ 13 1017.5R
S CRANEY ISL VA  1142   70     240/  2/  3 1017.3R
CAPE HENRY BUOY  1200      74                N/A     5/13   3/13
1ST LANDING BUOY 1200   73 75              1017.2    3/ 4
64NM E OF VA BCH 1150   70 69  280/  8/ 10 1017.4R  10/12  10/12
DUCK PIER NC     1142   72 75  290/  5/  6 1017.3R
44100 DUCK FRF   1105      74                N/A     6/11   5/11
44056 DUCK FRF   1200      75                N/A     5/11   3/11
OREGON INLET NC  1142   73 77  280/  4/  5 1017.6R
HATTERAS NC      1142   75 78  300/  3/  3 1017.2R
DIAMOND SHLS NC  1150   75 76  330/  4/  6 1017.2R   5/11   5/11
CAPE LOOKOUT NC  1200   77      80/  5/  6 1017.3R
$$



USA.gov is the U.S. government's official web portal to all federal, state and local government web resources and services.